When you browse on this site, cookies collect data to enhance your experience and personalize the content and advertising you see.
Visit our Privacy Policy to learn more. By continuing to use the site, you agree to this use of cookies and data.
  • In Hungary
  • List of Countries
  • For 7 days
  • Water Temperature
  • Weather Map
  • News
  • Weather Widgets
  • user-avatar
    Login

    Hourly Weather Mayorskiy

    Today, 15 October, Tuesday

    Time Temperature Precipitation Wind Pressure Humidity
    00:00 +15°C° 0 mm 2 mps 758 mmHg 68%
    01:00 +14°C° 0 mm 2 mps 758 mmHg 68%
    02:00 +14°C° 0 mm 2 mps 758 mmHg 69%
    03:00 +14°C° 0 mm 1 mps 758 mmHg 72%
    04:00 +13°C° 0 mm 1 mps 757 mmHg 72%
    05:00 +13°C° 0 mm 1 mps 757 mmHg 71%
    06:00 +13°C° 0 mm 1 mps 757 mmHg 70%
    07:00 +14°C° 0 mm 1 mps 757 mmHg 64%
    08:00 +16°C° 0 mm 1 mps 757 mmHg 58%
    09:00 +18°C° 0 mm 1 mps 758 mmHg 51%
    10:00 +20°C° 0 mm 1 mps 758 mmHg 46%
    11:00 +22°C° 0 mm 1 mps 757 mmHg 40%
    12:00 +23°C° 0 mm 1 mps 757 mmHg 34%
    13:00 +24°C° 0 mm 1 mps 757 mmHg 33%
    14:00 +24°C° 0 mm 1 mps 757 mmHg 32%
    15:00 +25°C° 0 mm 1 mps 756 mmHg 30%
    16:00 +23°C° 0 mm 1 mps 756 mmHg 35%
    17:00 +21°C° 0 mm 1 mps 756 mmHg 39%
    18:00 +20°C° 0 mm 1 mps 755 mmHg 44%
    19:00 +19°C° 0 mm 1 mps 756 mmHg 46%
    20:00 +18°C° 0 mm 1 mps 756 mmHg 48%
    21:00 +16°C° 0 mm 1 mps 756 mmHg 50%
    22:00 +16°C° 0 mm 1 mps 756 mmHg 50%
    23:00 +15°C° 0 mm 1 mps 756 mmHg 51%

    Tomorrow, 16 October, Wednesday

    Time Temperature Precipitation Wind Pressure Humidity
    00:00 +15°C° 0 mm 1 mps 756 mmHg 52%
    01:00 +15°C° 0 mm 1 mps 756 mmHg 53%
    02:00 +14°C° 0 mm 1 mps 756 mmHg 54%
    03:00 +14°C° 0 mm 1 mps 756 mmHg 55%
    04:00 +14°C° 0 mm 1 mps 756 mmHg 58%
    05:00 +13°C° 0 mm 1 mps 756 mmHg 61%
    06:00 +13°C° 0 mm 1 mps 756 mmHg 64%
    07:00 +14°C° 0 mm 2 mps 756 mmHg 62%
    08:00 +16°C° 0 mm 2 mps 757 mmHg 60%
    09:00 +17°C° 0 mm 3 mps 757 mmHg 57%
    10:00 +19°C° 0 mm 3 mps 757 mmHg 52%
    11:00 +20°C° 0 mm 3 mps 757 mmHg 48%
    12:00 +22°C° 0 mm 3 mps 757 mmHg 43%
    13:00 +22°C° 0 mm 3 mps 757 mmHg 42%
    14:00 +23°C° 0 mm 4 mps 757 mmHg 42%
    15:00 +23°C° 0 mm 4 mps 757 mmHg 41%
    16:00 +21°C° 0 mm 4 mps 757 mmHg 49%
    17:00 +20°C° 0 mm 4 mps 757 mmHg 57%
    18:00 +18°C° 0 mm 4 mps 757 mmHg 64%
    19:00 +17°C° 0 mm 4 mps 758 mmHg 67%
    20:00 +17°C° 0 mm 4 mps 758 mmHg 70%
    21:00 +15°C° 0 mm 5 mps 758 mmHg 73%
    22:00 +15°C° 0 mm 5 mps 758 mmHg 74%
    23:00 +14°C° 0 mm 5 mps 758 mmHg 75%

    Day after tomorrow, 17 October, Thursday

    Time Temperature Precipitation Wind Pressure Humidity
    00:00 +13°C° 0 mm 5 mps 758 mmHg 76%
    01:00 +13°C° 0 mm 5 mps 758 mmHg 76%
    02:00 +13°C° 0 mm 5 mps 758 mmHg 76%
    03:00 +12°C° 0 mm 5 mps 758 mmHg 76%
    04:00 +12°C° 0 mm 5 mps 758 mmHg 77%
    05:00 +10°C° 0 mm 5 mps 758 mmHg 78%
    06:00 +10°C° 0 mm 5 mps 758 mmHg 78%
    07:00 +12°C° 0 mm 5 mps 759 mmHg 74%
    08:00 +13°C° 0 mm 5 mps 759 mmHg 70%
    09:00 +14°C° 0 mm 6 mps 759 mmHg 65%
    10:00 +16°C° 0 mm 6 mps 759 mmHg 61%
    11:00 +17°C° 0 mm 6 mps 759 mmHg 57%
    12:00 +20°C° 0 mm 6 mps 758 mmHg 53%
    13:00 +20°C° 0 mm 6 mps 758 mmHg 51%
    14:00 +21°C° 0 mm 6 mps 758 mmHg 49%
    15:00 +21°C° 0 mm 6 mps 757 mmHg 47%
    16:00 +19°C° 0 mm 5 mps 757 mmHg 52%
    17:00 +17°C° 0 mm 5 mps 757 mmHg 57%
    18:00 +15°C° 0 mm 4 mps 757 mmHg 62%
    19:00 +15°C° 0 mm 4 mps 757 mmHg 65%
    20:00 +14°C° 0 mm 4 mps 757 mmHg 68%
    21:00 +13°C° 0 mm 4 mps 757 mmHg 71%
    22:00 +13°C° 0 mm 4 mps 757 mmHg 73%
    23:00 +12°C° 0 mm 4 mps 756 mmHg 75%

    18 October, Friday

    Time Temperature Precipitation Wind Pressure Humidity
    00:00 +12°C° 0 mm 4 mps 756 mmHg 78%
    01:00 +11°C° 0 mm 3 mps 756 mmHg 80%
    02:00 +11°C° 0 mm 3 mps 756 mmHg 82%
    03:00 +10°C° 0 mm 3 mps 756 mmHg 84%
    04:00 +10°C° 0 mm 3 mps 756 mmHg 86%
    05:00 +10°C° 0 mm 3 mps 756 mmHg 87%
    06:00 +9°C° 0 mm 3 mps 755 mmHg 89%
    07:00 +11°C° 0 mm 3 mps 755 mmHg 82%
    08:00 +12°C° 0 mm 3 mps 755 mmHg 76%
    09:00 +13°C° 0 mm 3 mps 755 mmHg 70%
    10:00 +16°C° 0 mm 3 mps 755 mmHg 60%
    11:00 +19°C° 0 mm 3 mps 755 mmHg 51%
    12:00 +21°C° 0 mm 3 mps 755 mmHg 42%
    13:00 +21°C° 0 mm 3 mps 755 mmHg 39%
    14:00 +22°C° 0 mm 3 mps 755 mmHg 37%
    15:00 +23°C° 0 mm 2 mps 754 mmHg 34%
    16:00 +20°C° 0 mm 2 mps 754 mmHg 39%
    17:00 +19°C° 0 mm 2 mps 754 mmHg 45%
    18:00 +18°C° 0 mm 1 mps 754 mmHg 50%
    19:00 +16°C° 0 mm 2 mps 754 mmHg 52%
    20:00 +16°C° 0 mm 2 mps 754 mmHg 53%
    21:00 +15°C° 0 mm 2 mps 755 mmHg 55%
    22:00 +15°C° 0 mm 2 mps 755 mmHg 56%
    23:00 +14°C° 0 mm 2 mps 754 mmHg 57%

    19 October, Saturday

    Time Temperature Precipitation Wind Pressure Humidity
    00:00 +14°C° 0 mm 2 mps 754 mmHg 59%
    01:00 +14°C° 0 mm 2 mps 754 mmHg 59%
    02:00 +13°C° 0 mm 1 mps 755 mmHg 60%
    03:00 +13°C° 0 mm 1 mps 755 mmHg 61%
    04:00 +13°C° 0 mm 1 mps 755 mmHg 62%
    05:00 +12°C° 0 mm 1 mps 755 mmHg 62%
    06:00 +12°C° 0 mm 1 mps 755 mmHg 63%
    07:00 +14°C° 0 mm 2 mps 756 mmHg 59%
    08:00 +15°C° 0 mm 2 mps 756 mmHg 54%
    09:00 +16°C° 0 mm 2 mps 756 mmHg 50%
    10:00 +18°C° 0 mm 2 mps 756 mmHg 45%
    11:00 +20°C° 0 mm 2 mps 756 mmHg 41%
    12:00 +21°C° 0 mm 2 mps 756 mmHg 36%
    13:00 +21°C° 0 mm 2 mps 756 mmHg 35%
    14:00 +23°C° 0 mm 2 mps 756 mmHg 34%
    15:00 +23°C° 0 mm 2 mps 756 mmHg 33%
    16:00 +20°C° 0 mm 2 mps 756 mmHg 39%
    17:00 +18°C° 0 mm 3 mps 756 mmHg 45%
    18:00 +17°C° 0 mm 3 mps 756 mmHg 51%
    19:00 +16°C° 0 mm 3 mps 756 mmHg 54%
    20:00 +14°C° 0 mm 3 mps 757 mmHg 57%
    21:00 +14°C° 0 mm 3 mps 757 mmHg 59%
    22:00 +13°C° 0 mm 3 mps 757 mmHg 63%
    23:00 +13°C° 0 mm 3 mps 757 mmHg 66%

    20 October, Sunday

    Time Temperature Precipitation Wind Pressure Humidity
    00:00 +12°C° 0 mm 3 mps 757 mmHg 70%
    01:00 +12°C° 0 mm 3 mps 757 mmHg 71%
    02:00 +12°C° 0 mm 3 mps 757 mmHg 73%
    03:00 +11°C° 0 mm 3 mps 757 mmHg 75%
    04:00 +11°C° 0 mm 3 mps 757 mmHg 77%
    05:00 +11°C° 0 mm 3 mps 758 mmHg 79%
    06:00 +10°C° 0 mm 3 mps 758 mmHg 80%
    07:00 +12°C° 0 mm 3 mps 758 mmHg 75%
    08:00 +13°C° 0 mm 4 mps 758 mmHg 69%
    09:00 +14°C° 0 mm 4 mps 759 mmHg 63%
    10:00 +17°C° 0 mm 4 mps 759 mmHg 59%
    11:00 +18°C° 0 mm 4 mps 759 mmHg 54%
    12:00 +19°C° 0 mm 5 mps 759 mmHg 50%
    13:00 +20°C° 0 mm 5 mps 759 mmHg 49%
    14:00 +20°C° 0 mm 5 mps 759 mmHg 49%
    15:00 +20°C° 0 mm 5 mps 759 mmHg 49%
    16:00 +17°C° 0 mm 5 mps 759 mmHg 53%
    17:00 +17°C° 0 mm 4 mps 759 mmHg 57%
    18:00 +14°C° 0 mm 4 mps 759 mmHg 61%
    19:00 +13°C° 0 mm 4 mps 759 mmHg 63%
    20:00 +13°C° 0 mm 4 mps 760 mmHg 66%
    21:00 +12°C° 0 mm 4 mps 760 mmHg 68%
    22:00 +12°C° 0 mm 4 mps 760 mmHg 69%
    23:00 +11°C° 0 mm 4 mps 760 mmHg 70%
    Show more